Jogging du foot de Olne
Jogging du foot de Olne 08/09/2017 - 8 km
Mise à jour le : 11/09/2017 à 12:14
Classement définitif, aucune correction possible
Place Nom Prénom Dossard Temps Vitesse Allure Place. Cat. Catégorie
1 STRAET PAOLO 801 25:56 18,50 3:14 1 Espoirs Garçons
2 LEFEBVRE LUDWIG 296 26:07 18,38 3:15 1 Séniors
3 PTAK FLORENT 810 27:11 17,65 3:23 2 Espoirs Garçons
4 MARQUET JORDAN 606 27:54 17,20 3:29 2 Séniors
5 BAAR GREGORY 49 28:00 17,14 3:30 3 Séniors
6 DEHIN REGINALD 821 28:06 17,08 3:30 4 Séniors
7 BADER REGIS 859 28:29 16,85 3:33 5 Séniors
8 WIERTZ XAVIER 4 28:38 16,76 3:34 6 Séniors
9 HODY PHILIPPE 803 28:59 16,56 3:37 7 Séniors
10 FICHER PIERRE 830 29:33 16,24 3:41 8 Séniors
11 DION CYPRIEN 903 29:40 16,18 3:42 9 Séniors
12 VERVIER ARNAUD 428 29:52 16,07 3:44 10 Séniors
13 BLANCHY REGIS 576 30:00 15,99 3:45 11 Séniors
14 TELLER BENJA 831 30:03 15,97 3:45 12 Séniors
15 HOGGE GAETAN 747 30:11 15,90 3:46 3 Espoirs Garçons
16 OLIVIER LAURENT 520 30:13 15,88 3:46 1 Vétérans 1
17 LEHAEN PIERRE-OLIVIER 436 30:27 15,76 3:48 2 Vétérans 1
18 DENOOZ DANIEL 219 30:40 15,65 3:50 1 Vétérans 2
19 DUBOIS SAMUEL 246 30:41 15,64 3:50 13 Séniors
20 HENRARD GUILLAUME 322 30:57 15,51 3:52 14 Séniors
21 HENDRICK JULIEN 843 31:13 15,37 3:54 15 Séniors
22 CHERKAOUI MAJID 856 31:35 15,19 3:56 16 Séniors
23 ANDRES GABY 2 31:41 15,15 3:57 1 Ainées 2
24 TIMMERMANN ALEXANDRE 893 31:44 15,12 3:58 17 Séniors
25 JANSSEN NICOLAS 875 31:46 15,11 3:58 18 Séniors
26 DEBIOLLE FREDERIC 206 31:48 15,09 3:58 19 Séniors
27 WALRAFF WALLY 678 31:52 15,06 3:59 3 Vétérans 1
28 LEJACQUES THIBAUT 894 31:56 15,03 3:59 20 Séniors
29 HUPPERETZ PATRICK 845 31:59 15,01 3:59 21 Séniors
30 BEUKEN SERGE 808 32:02 14,98 4:00 2 Vétérans 2
31 GOMZE MICHEL 5 32:11 14,91 4:01 3 Vétérans 2
32 LEBRUN JOHAN 827 32:29 14,77 4:03 22 Séniors
33 TELLER RENAUD 829 32:36 14,72 4:04 23 Séniors
34 HIGNY BERTRAND 866 32:38 14,71 4:04 24 Séniors
35 PESSER ALINE 11 32:39 14,70 4:04 2 Ainées 2
36 HENRARD DIDIER 851 32:49 14,62 4:06 25 Séniors
37 MERCENIER ALAIN 495 32:53 14,60 4:06 4 Vétérans 1
38 KARIGER THOMAS 837 32:55 14,58 4:06 4 Espoirs Garçons
39 LANNEER ERIC 396 32:58 14,56 4:07 4 Vétérans 2
40 SONTAG THIERRY 615 33:00 14,54 4:07 5 Vétérans 1
41 HIGNY THOMAS 840 33:02 14,53 4:07 26 Séniors
42 DERU FABIAN 807 33:09 14,48 4:08 6 Vétérans 1
43 DORTU DAMIEN 220 33:11 14,46 4:08 27 Séniors
44 CARIA NANDO 132 33:15 14,43 4:09 1 Vétérans 3
45 LENSSEN PIERRE 853 33:19 14,41 4:09 7 Vétérans 1
46 DELOYER LAURENT 884 33:21 14,39 4:10 28 Séniors
47 VANICEK ALJOSCHA 847 33:23 14,38 4:10 5 Espoirs Garçons
48 CORBUSIER NICOLAS 117 33:25 14,36 4:10 29 Séniors
49 DORTU BASTIAN 173 33:31 14,32 4:11 30 Séniors
50 CASTERMANS MICHAEL 95 33:33 14,31 4:11 31 Séniors
51 HAKIMI AMIR 820 33:38 14,27 4:12 6 Espoirs Garçons
52 DEJARDIN FREDERIC 848 33:41 14,25 4:12 8 Vétérans 1
53 GERARD MICHAEL 862 34:04 14,09 4:15 32 Séniors
54 DETAILLE JULIEN 228 34:07 14,07 4:15 33 Séniors
55 CLIEGNET CHRISTIAN 111 34:09 14,05 4:16 34 Séniors
56 KOHNEN PIERRE-ALEX 846 34:11 14,04 4:16 7 Espoirs Garçons
57 VANBRABANT RAPHAEL 653 34:13 14,02 4:16 9 Vétérans 1
58 GENEREITH GREGORY 871 34:16 14,01 4:17 35 Séniors
59 OURY PATRICE 530 34:25 13,94 4:18 5 Vétérans 2
60 DEBATTY NOE 891 34:27 13,93 4:18 8 Espoirs Garçons
61 COLLIGNON NATHAN 811 34:45 13,81 4:20 9 Espoirs Garçons
62 VANICEN HOLGER 842 34:51 13,77 4:21 6 Vétérans 2
63 EL-BALDI SAID 258 34:56 13,74 4:22 10 Vétérans 1
64 FROIDMONT DANIELLE 263 34:58 13,73 4:22 3 Ainées 2
65 OLEFS ANTONINO 872 35:01 13,71 4:22 36 Séniors
66 LANNEER GABRIEL 398 35:04 13,68 4:23 10 Espoirs Garçons
67 COLLARD SERGE 145 35:06 13,67 4:23 11 Vétérans 1
68 OPREI PETER 850 35:10 13,64 4:23 2 Vétérans 3
69 LEMAITRE JEAN-PIERRE 435 35:14 13,62 4:24 7 Vétérans 2
70 DELNOY GEOFFREY 156 35:17 13,60 4:24 37 Séniors
71 NADENOEN OLIVIER 813 35:20 13,58 4:25 12 Vétérans 1
72 DORTU ARNAUD 324 35:22 13,57 4:25 38 Séniors
73 SERVAIS ADRIEN 877 35:37 13,47 4:27 39 Séniors
74 FETTWEIS VERONIQUE 243 35:39 13,46 4:27 1 Dames
75 FLAMAND MICHAEL 257 35:47 13,41 4:28 40 Séniors
76 DUESBERG MIKE 832 35:49 13,40 4:28 41 Séniors
77 JOHNEN TANGUY 841 35:54 13,37 4:29 42 Séniors
78 JOWAY ERIC 393 35:57 13,35 4:29 8 Vétérans 2
79 NYSSEN PIERRE 723 36:02 13,32 4:30 13 Vétérans 1
80 SOMJA VICTOR 527 36:05 13,30 4:30 9 Vétérans 2
81 HOGGE GREGORY 260 36:06 13,29 4:30 11 Espoirs Garçons
82 DORTU AXEL 858 36:21 13,20 4:32 43 Séniors
83 FONTAINE SERGE 291 36:27 13,17 4:33 14 Vétérans 1
84 EVRARD FRANCOISE 902 36:41 13,08 4:35 2 Dames
85 FASSIN ELODIE 189 37:09 12,92 4:38 3 Dames
86 LAHAYE FRANCOIS 272 37:12 12,90 4:39 44 Séniors
87 STEFFENS BENOIT 749 37:14 12,89 4:39 15 Vétérans 1
88 FAUTRE JEAN-CLAUDE 802 37:20 12,85 4:40 3 Vétérans 3
89 BYNENS NICOLAS 804 37:22 12,84 4:40 4 Vétérans 3
90 HANSEZ ANNE 839 37:26 12,82 4:40 4 Dames
91 HOCK MICHAEL 468 37:49 12,69 4:43 45 Séniors
92 COLA EMMANUEL 896 37:55 12,66 4:44 16 Vétérans 1
93 FEY CELINE 191 38:00 12,63 4:45 1 Espoirs Filles
94 HALLEUX JEAN MARIE 337 38:19 12,53 4:47 17 Vétérans 1
95 STRAET EMMA 399 38:24 12,50 4:48 2 Espoirs Filles
96 WITWROUW CHRISTOPHE 806 38:31 12,46 4:48 18 Vétérans 1
97 SCHNACKERS GUILLAUME 883 38:33 12,45 4:49 46 Séniors
98 GREIMERS DIMITRI 904 38:35 12,44 4:49 47 Séniors
99 FEY PHILIPPE 192 38:37 12,43 4:49 19 Vétérans 1
100 VANNESTE LIESBETH 887 38:39 12,42 4:49 48 Séniors
101 KEVELAER BEATRICE 361 38:41 12,41 4:50 4 Ainées 2
102 FONTAINE FRANCINE 633 38:44 12,39 4:50 1 Ainées 3
103 BEYER BRUNO 631 38:48 12,37 4:51 10 Vétérans 2
104 DERKENNE MAXIME 838 39:04 12,28 4:53 12 Espoirs Garçons
105 BAIVERLIN MAXIME 29 39:05 12,28 4:53 20 Vétérans 1
106 WATAR FRANCIS 442 39:10 12,25 4:53 21 Vétérans 1
107 CAPIER JEAN-MARIE 197 39:12 12,24 4:54 5 Vétérans 3
108 DARTOIS FABRICE 746 39:14 12,23 4:54 22 Vétérans 1
109 MESTREZ ERIC 7 39:15 12,22 4:54 23 Vétérans 1
110 HOUGRAND OLIVIER 817 39:18 12,21 4:54 24 Vétérans 1
111 HOUGRAND ALAIN 819 39:20 12,20 4:55 11 Vétérans 2
112 LEMAIRE GUILLAUME 497 39:42 12,09 4:57 49 Séniors
113 DEBATY JULIE 492 39:42 12,09 4:57 1 Ainées 1
114 THONON MARIE-PIERRE 405 39:45 12,07 4:58 5 Dames
115 PISCART FRANCOISE 348 39:48 12,06 4:58 5 Ainées 2
116 KEYEN MANU 874 39:50 12,05 4:58 50 Séniors
117 BILS TRAIL 886 39:59 12,00 4:59 51 Séniors
118 BROUWERS MICHAEL 120 39:59 12,00 4:59 52 Séniors
119 CRASSON VINCENT 816 39:59 12,00 4:59 12 Vétérans 2
120 KESTELOOT MARC 356 40:13 11,93 5:01 25 Vétérans 1
121 KREMER JOEL 409 40:19 11,90 5:02 26 Vétérans 1
122 DESSOUROUX JEAN 227 40:30 11,85 5:03 6 Vétérans 3
123 PIROSON CHRISTIAN 544 40:35 11,82 5:04 27 Vétérans 1
124 ERNST ANDRE 265 40:35 11,82 5:04 13 Vétérans 2
125 LAHAYE ADRIEN 482 40:40 11,80 5:05 53 Séniors
126 MORIAUX JEAN MARIE 854 40:40 11,80 5:05 54 Séniors
127 FRANCK MARIE 900 40:41 11,80 5:05 6 Dames
128 BRENNENRAEDTS CEDRIC 901 40:43 11,79 5:05 55 Séniors
129 BEAUWENS MAGALI 59 40:44 11,78 5:05 2 Ainées 1
130 BISSOT MICHEL 68 40:45 11,78 5:05 28 Vétérans 1
131 HIERNAUX AURELIE 467 40:48 11,76 5:06 3 Ainées 1
132 CORDEWENER CELINE 878 40:50 11,75 5:06 7 Dames
133 BOSKIN TOM 852 40:52 11,74 5:06 13 Espoirs Garçons
134 BOULANGER BRYAN 863 41:01 11,70 5:07 56 Séniors
135 BIHET PIERRE YVES 881 41:39 11,52 5:12 57 Séniors
136 ABSIL STEPHANE 52 41:43 11,51 5:12 29 Vétérans 1
137 LELOUP OLIVIER 828 41:47 11,48 5:13 30 Vétérans 1
138 LOHAY FREDERIC 587 41:55 11,45 5:14 58 Séniors
139 DELSAUTE CHRISTIAN 892 42:06 11,40 5:15 59 Séniors
140 PISCART ERIC 869 42:09 11,39 5:16 31 Vétérans 1
141 WILKIN MAXIME 857 42:15 11,36 5:16 60 Séniors
142 LEFIN PASCALE 898 42:18 11,34 5:17 4 Ainées 1
143 BIET CHRISTIAN 822 42:20 11,34 5:17 14 Vétérans 2
144 SCHREURS BERNARD 600 42:22 11,33 5:17 61 Séniors
145 EL-BALDI HINDE 183 42:27 11,31 5:18 3 Espoirs Filles
146 CIVINO ERWAN 865 42:29 11,30 5:18 14 Espoirs Garçons
147 MUYTERS VALERIE 639 42:33 11,28 5:19 5 Ainées 1
148 SCHOONBROODT BENOIT 3 42:34 11,27 5:19 32 Vétérans 1
149 CIOMEK FREDERIC 97 42:36 11,27 5:19 33 Vétérans 1
150 SCHNAKERS STEPHANE 836 42:39 11,25 5:19 62 Séniors
151 VOSS JEAN-LOUIS 673 42:41 11,24 5:20 7 Vétérans 3
152 LESO LORIS 899 42:43 11,23 5:20 15 Espoirs Garçons
153 DECROUPET LUC 861 42:45 11,22 5:20 15 Vétérans 2
154 BISSOT DYLAN 873 42:48 11,21 5:21 16 Espoirs Garçons
155 REGNIER DIDIER 584 42:50 11,20 5:21 16 Vétérans 2
156 FROMONT FREDERIC 818 42:53 11,19 5:21 34 Vétérans 1
157 VERCAMMEN MICHEL 427 42:59 11,17 5:22 35 Vétérans 1
158 GRUOSSO JESSICA 897 43:05 11,14 5:23 6 Ainées 1
159 ETIENNE NADIA 632 43:07 11,13 5:23 6 Ainées 2
160 ANDRIEN TONY 51 43:08 11,13 5:23 17 Vétérans 2
161 MEYER THOMAS 895 43:10 11,12 5:23 8 Vétérans 3
162 NOIRFALISE CECILE 523 43:13 11,10 5:24 7 Ainées 1
163 CUPERS PHILIPPE 159 43:18 11,08 5:24 36 Vétérans 1
164 GREGOIRE CHRISTINE 870 43:18 11,08 5:24 7 Ainées 2
165 KERF JEAN FREDERIC 823 43:20 11,07 5:25 63 Séniors
166 BLAISE ROMAIN 855 43:23 11,06 5:25 17 Espoirs Garçons
167 HANSEZ HENRI 890 43:24 11,06 5:25 18 Espoirs Garçons
168 HANSEZ JOEL 889 43:26 11,05 5:25 18 Vétérans 2
169 HEYNDELS CHRISTIAN 824 43:28 11,04 5:26 37 Vétérans 1
170 NICOLAS FRANCIS 549 43:29 11,04 5:26 38 Vétérans 1
171 BONJEAN ALAIN 879 43:38 11,00 5:27 19 Vétérans 2
172 DIET JULIEN 868 43:46 10,97 5:28 64 Séniors
173 FRANSSEN RANDY 204 44:11 10,86 5:31 65 Séniors
174 MONTAGNA MICHAEL 880 44:12 10,86 5:31 66 Séniors
175 CASTELA DELPHINE 149 44:20 10,83 5:32 8 Dames
176 BERTRANG JULIEN 79 45:09 10,63 5:38 1 Vétérans 4
177 ARCHAMBEAU ROGER 805 45:12 10,62 5:39 9 Vétérans 3
178 PESSER RENE 341 45:14 10,61 5:39 20 Vétérans 2
179 DESENFANTS BERNARD 223 45:39 10,51 5:42 21 Vétérans 2
180 SCKNAKERS JEAN YVES 876 45:42 10,50 5:42 67 Séniors
181 MUYTERS CHRISTIAN 514 45:59 10,44 5:44 10 Vétérans 3
182 ROUFOSSE UGO 34 46:12 10,39 5:46 39 Vétérans 1
183 DEVILLERS ALAIN 282 46:12 10,39 5:46 22 Vétérans 2
184 BAAR OLIVIER 844 46:12 10,39 5:46 68 Séniors
185 LECLERCQ XAVIER 18 46:12 10,39 5:46 69 Séniors
186 MARECHAL DAVID 479 46:12 10,39 5:46 70 Séniors
187 SAUVAGE MAXIME 809 46:43 10,27 5:50 71 Séniors
188 TELLER ALICIA 812 46:45 10,27 5:50 9 Dames
189 MARECHAL FERNAND 814 46:51 10,24 5:51 2 Vétérans 4
190 DELAIRESSE GILBERT 849 47:07 10,19 5:53 3 Vétérans 4
191 MARECHAL BERNADETTE 864 47:12 10,17 5:54 2 Ainées 3
192 GROSJEAN ALAIN 420 48:07 9,97 6:00 11 Vétérans 3
193 BRAGARD BENOIT 882 48:10 9,96 6:01 23 Vétérans 2
194 LEONARD EMMELINE 867 48:16 9,94 6:02 10 Dames
195 HEYNDELS TRYSTAN 825 49:06 9,77 6:08 19 Espoirs Garçons
196 ODEURS JEAN-CLAUDE 330 49:08 9,77 6:08 12 Vétérans 3
197 FRANSSEN OCEANE 835 49:37 9,67 6:12 4 Espoirs Filles
198 PIEROT GUY 826 49:46 9,64 6:13 13 Vétérans 3
199 MOSSOUX PHILIPPE 508 50:10 9,57 6:16 14 Vétérans 3
200 FASSOTTE FRANCOISE 888 50:34 9,49 6:19 8 Ainées 1
201 COLLIGNON SABRINA 114 51:17 9,36 6:24 9 Ainées 1
202 DEWAIDE LAURENCE 548 51:20 9,35 6:25 10 Ainées 1
203 SCHWARTZ STEPHANIE 833 51:33 9,31 6:26 11 Dames
204 FETTWEIS GAELLE 280 52:01 9,23 6:30 12 Dames
205 PIRARD THIERRY 815 53:25 8,99 6:40 40 Vétérans 1
206 WILKIN ANDRE 690 53:35 8,96 6:41 15 Vétérans 3
207 FIDANZA ALEXANDRE 860 54:41 8,78 6:50 20 Espoirs Garçons
208 PATRIARCA TIZIANA 338 54:53 8,74 6:51 8 Ainées 2
209 MAQUINAY FELICIEN 475 54:53 8,74 6:51 16 Vétérans 3
210 INCONNU INCONNU 439 55:31 8,64 6:56 0
211 DELBEUCK AURORE 885 55:33 8,64 6:56 11 Ainées 1
212 HERZET MARLENE 254 55:37 8,63 6:57 3 Ainées 3
213 ANCION ELOISE 834 1:02:08 7,72 7:46 5 Espoirs Filles
214 MOINEAU VICTOR 502 1:02:08 7,72 7:46 4 Vétérans 4